Weather History for Burlington, WI

Change the Weather History Date:

Monday, November 5, 2012

  Actual Average (KENW) Record (KENW)
Temperature  
Mean Temperature 30 °F -  
Max Temperature 41 °F 48 °F 76 °F (1978)
Min Temperature 19 °F 33 °F 9 °F (1951)
Degree Days  
Heating Degree Days 35    
Moisture  
Dew Point 28 °F    
Average Humidity 87    
Maximum Humidity 100    
Minimum Humidity 65    
Precipitation  
Precipitation 0.00 in - - ()
Sea Level Pressure  
Sea Level Pressure 30.17 in    
Wind  
Wind Speed 2 mph (East)    
Max Wind Speed 9 mph    
Max Gust Speed -    
Visibility 10 miles    
Events      
Averages and records for this station are not official NWS values.
T = Trace of Precipitation, MM = Missing Value Source: NWS Daily Summary

Daily Weather History Graph

Daily Weather History Graph

Search for Another Location

Airport:

Trip Planner

Search our weather history database for the weather conditions in past years. The results will help you decide how hot, cold, wet, or windy it might be!

Date:

Astronomy

Nov. 05, 2012 Rise Set
Actual Time 6:32 AM CST 4:40 PM CST
Civil Twilight 6:03 AM CST 5:09 PM CST
Nautical Twilight 5:29 AM CST 5:43 PM CST
Astronomical Twilight 4:56 AM CST 6:16 PM CST
Moon 10:17 PM CST (11/5) 11:52 AM CST (11/5)
Length of Visible Light 11h 06m
Length of Day
10h 07m
Waning Gibbous, 62% of the Moon is Illuminated
Nov 5
Waning Gibbous
Nov 6
Last Quarter
Nov 13
New
Nov 20
First Quarter
Nov 28
Full

Hourly Weather History & Observations

Time (CST) Temp. Windchill Dew Point Humidity Pressure Visibility Wind Dir Wind Speed Gust Speed Precip Events Conditions
12:15 AM 21.2 °F - 21.2 °F 100% 30.20 in 10.0 mi Calm Calm - N/A   Clear
12:35 AM 21.2 °F - 21.2 °F 100% 30.20 in 10.0 mi Calm Calm - N/A   Clear
12:55 AM 21.2 °F - 21.2 °F 100% 30.20 in 10.0 mi Calm Calm - N/A   Clear
1:15 AM 21.2 °F - 21.2 °F 100% 30.19 in 10.0 mi Calm Calm - N/A   Clear
1:35 AM 21.2 °F - 19.4 °F 93% 30.20 in 10.0 mi Calm Calm - N/A   Clear
1:55 AM 21.2 °F - 21.2 °F 100% 30.20 in 10.0 mi Calm Calm - N/A   Clear
2:15 AM 21.2 °F - 21.2 °F 100% 30.20 in 10.0 mi Calm Calm - N/A   Clear
2:35 AM 21.2 °F - 21.2 °F 100% 30.19 in 10.0 mi Calm Calm - N/A   Clear
2:55 AM 21.2 °F - 21.2 °F 100% 30.19 in 7.0 mi Calm Calm - N/A   Clear
3:15 AM 19.4 °F - 19.4 °F 100% 30.19 in 10.0 mi Calm Calm - N/A   Clear
3:35 AM 21.2 °F - 19.4 °F 93% 30.19 in 10.0 mi Calm Calm - N/A   Clear
3:55 AM 19.4 °F - 19.4 °F 100% 30.20 in 10.0 mi Calm Calm - N/A   Clear
4:15 AM 19.4 °F - 19.4 °F 100% 30.20 in 10.0 mi Calm Calm - N/A   Clear
4:35 AM 19.4 °F - 19.4 °F 100% 30.20 in 10.0 mi Calm Calm - N/A   Clear
5:35 AM 19.4 °F - 19.4 °F 100% 30.19 in 10.0 mi Calm Calm - N/A   Clear
5:55 AM 21.2 °F - 19.4 °F 93% 30.19 in 7.0 mi Calm Calm - N/A   Clear
6:15 AM 21.2 °F - 19.4 °F 93% 30.19 in 10.0 mi Calm Calm - N/A   Clear
6:35 AM 21.2 °F - 21.2 °F 100% 30.18 in 7.0 mi Calm Calm - N/A   Clear
6:55 AM 21.2 °F - 19.4 °F 93% 30.19 in 10.0 mi Calm Calm - N/A   Clear
7:15 AM 21.2 °F - 19.4 °F 93% 30.19 in 10.0 mi Calm Calm - N/A   Clear
7:35 AM 24.8 °F - 23.0 °F 93% 30.19 in 7.0 mi Calm Calm - N/A   Mostly Cloudy
7:55 AM 28.4 °F - 28.4 °F 100% 30.20 in 7.0 mi Calm Calm - N/A   Overcast
8:15 AM 30.2 °F - 28.4 °F 93% 30.20 in 7.0 mi Calm Calm - N/A   Overcast
8:35 AM 32.0 °F - 28.4 °F 87% 30.20 in 10.0 mi Calm Calm - N/A   Overcast
8:55 AM 32.0 °F - 30.2 °F 93% 30.20 in 10.0 mi Calm Calm - N/A   Overcast
9:15 AM 32.0 °F - 32.0 °F 100% 30.20 in 7.0 mi Calm Calm - N/A   Overcast
9:35 AM 35.6 °F 30.7 °F 32.0 °F 87% 30.19 in 10.0 mi NNE 5.8 mph - N/A   Overcast
9:55 AM 39.2 °F 35.0 °F 32.0 °F 75% 30.20 in 10.0 mi NNE 5.8 mph - N/A   Mostly Cloudy
10:15 AM 41.0 °F 36.4 °F 32.0 °F 70% 30.20 in 10.0 mi NNE 6.9 mph - N/A   Scattered Clouds
10:35 AM 41.0 °F - 32.0 °F 70% 30.19 in 10.0 mi Calm Calm - N/A   Mostly Cloudy
10:55 AM 41.0 °F 37.1 °F 32.0 °F 70% 30.19 in 10.0 mi NNE 5.8 mph - N/A   Overcast
11:15 AM 41.0 °F 39.0 °F 32.0 °F 70% 30.19 in 10.0 mi North 3.5 mph - N/A   Overcast
11:35 AM 41.0 °F 39.0 °F 32.0 °F 70% 30.19 in 10.0 mi North 3.5 mph - N/A   Overcast
11:55 AM 41.0 °F 39.0 °F 30.2 °F 65% 30.18 in 10.0 mi NE 3.5 mph - N/A   Overcast
12:15 PM 41.0 °F - 32.0 °F 70% 30.17 in 10.0 mi Calm Calm - N/A   Overcast
12:35 PM 41.0 °F 38.0 °F 32.0 °F 70% 30.17 in 10.0 mi ENE 4.6 mph - N/A   Overcast
12:55 PM 41.0 °F 38.0 °F 32.0 °F 70% 30.17 in 10.0 mi ENE 4.6 mph - N/A   Overcast
1:15 PM 39.2 °F 34.2 °F 32.0 °F 75% 30.17 in 7.0 mi East 6.9 mph - N/A   Overcast
1:35 PM 37.4 °F 31.4 °F 32.0 °F 81% 30.16 in 10.0 mi ENE 8.1 mph - N/A   Overcast
1:55 PM 37.4 °F 30.8 °F 32.0 °F 81% 30.16 in 10.0 mi East 9.2 mph - N/A   Overcast
2:15 PM 37.4 °F 30.8 °F 32.0 °F 81% 30.16 in 10.0 mi East 9.2 mph - N/A   Overcast
2:35 PM 37.4 °F 32.8 °F 32.0 °F 81% 30.16 in 10.0 mi East 5.8 mph - N/A   Overcast
2:55 PM 37.4 °F 31.4 °F 32.0 °F 81% 30.16 in 10.0 mi ESE 8.1 mph - N/A   Overcast
3:15 PM 37.4 °F 33.8 °F 32.0 °F 81% 30.16 in 10.0 mi East 4.6 mph - N/A   Overcast
3:35 PM 37.4 °F 32.8 °F 32.0 °F 81% 30.16 in 10.0 mi East 5.8 mph - N/A   Overcast
3:55 PM 37.4 °F 31.4 °F 32.0 °F 81% 30.15 in 10.0 mi East 8.1 mph - N/A   Overcast
4:15 PM 37.4 °F 33.8 °F 32.0 °F 81% 30.16 in 10.0 mi East 4.6 mph - N/A   Overcast
4:35 PM 35.6 °F 30.7 °F 32.0 °F 87% 30.16 in 10.0 mi East 5.8 mph - N/A   Overcast
4:55 PM 35.6 °F 31.7 °F 32.0 °F 87% 30.16 in 10.0 mi East 4.6 mph - N/A   Overcast
5:15 PM 35.6 °F 32.8 °F 32.0 °F 87% 30.16 in 10.0 mi ENE 3.5 mph - N/A   Overcast
5:35 PM 35.6 °F - 32.0 °F 87% 30.17 in 10.0 mi Calm Calm - N/A   Overcast
5:55 PM 35.6 °F 30.7 °F 32.0 °F 87% 30.17 in 10.0 mi East 5.8 mph - N/A   Overcast
6:15 PM 35.6 °F 31.7 °F 32.0 °F 87% 30.17 in 10.0 mi East 4.6 mph - N/A   Overcast
6:35 PM 35.6 °F - 32.0 °F 87% 30.17 in 10.0 mi Calm Calm - N/A   Overcast
6:55 PM 35.6 °F - 32.0 °F 87% 30.16 in 10.0 mi Calm Calm - N/A   Overcast
7:15 PM 35.6 °F 31.7 °F 32.0 °F 87% 30.16 in 10.0 mi East 4.6 mph - N/A   Overcast
7:35 PM 35.6 °F 32.8 °F 32.0 °F 87% 30.15 in 10.0 mi East 3.5 mph - N/A   Overcast
7:55 PM 35.6 °F 32.8 °F 32.0 °F 87% 30.15 in 10.0 mi ESE 3.5 mph - N/A   Overcast
8:15 PM 35.6 °F 31.7 °F 30.2 °F 81% 30.14 in 10.0 mi SE 4.6 mph - N/A   Overcast
8:35 PM 33.8 °F 29.6 °F 30.2 °F 87% 30.14 in 10.0 mi ESE 4.6 mph - N/A   Overcast
8:55 PM 35.6 °F 32.8 °F 30.2 °F 81% 30.14 in 10.0 mi ESE 3.5 mph - N/A   Overcast
9:15 PM 33.8 °F - 30.2 °F 87% 30.14 in 10.0 mi Calm Calm - N/A   Overcast
9:35 PM 33.8 °F - 30.2 °F 87% 30.14 in 10.0 mi Calm Calm - N/A   Overcast
9:55 PM 33.8 °F - 30.2 °F 87% 30.14 in 10.0 mi Calm Calm - N/A   Overcast
10:15 PM 33.8 °F - 30.2 °F 87% 30.13 in 10.0 mi Calm Calm - N/A   Overcast
10:35 PM 33.8 °F - 30.2 °F 87% 30.13 in 10.0 mi Calm Calm - N/A   Overcast
10:55 PM 33.8 °F - 30.2 °F 87% 30.12 in 10.0 mi Calm Calm - N/A   Overcast
11:15 PM 33.8 °F - 30.2 °F 87% 30.12 in 10.0 mi Calm Calm - N/A   Overcast
11:35 PM 33.8 °F - 30.2 °F 87% 30.12 in 10.0 mi Calm Calm - N/A   Overcast
11:55 PM 33.8 °F - 30.2 °F 87% 30.11 in 10.0 mi Calm Calm - N/A   Overcast